[[{"header":{"parameterUnit":"m.s-1","parameterCategory":1,"la1":30.2991,"la2":30.254,"lo1":-89.0895,"lo2":-89.0444,"dy":0.0017,"dx":0.0017,"nx":28,"ny":28,"refTime":"2026-02-17T03:00:00:Z","depth":0,"parameterNumber":2,"parameterNumberName":"U-component_of_WINDS"},"data":[0,0,0,0,0,0,0,0,0,0,0,0,0,0,0,0,0,0,0,0,0,0,0,0,0,0,0,0,0,0,0,0,0,0,0,0,0,0,0,0,0,0,0,0,0,0,0,0,0,0,0,0,0,0,0,0,0,0,-3.5595,-3.5595,0,-3.5678,-3.5679,-3.568,-3.5686,-3.5685,-3.5684,-3.5683,-3.5772,-3.5775,-3.5779,0,0,0,0,0,0,0,0,0,0,0,0,0,-3.5444,-3.5447,-3.5594,-3.5595,-3.5597,-3.5678,-3.5679,-3.568,-3.5686,-3.5685,-3.5684,-3.5683,-3.5771,-3.5775,-3.5779,0,0,0,0,0,0,0,0,0,0,0,0,0,-3.5517,-3.5448,-3.5594,-3.5609,-3.5611,-3.5677,-3.5679,-3.568,-3.5686,-3.5685,-3.5684,-3.5682,-3.577,-3.5775,-3.5779,-3.5837,0,0,-3.5794,-3.5796,0,0,0,0,0,0,0,0,-3.5513,-3.5522,-3.5606,-3.5608,-3.5611,-3.567,-3.5659,-3.5733,-3.5687,-3.5658,-3.5683,-3.5682,-3.574,-3.5747,-3.5766,-3.5841,-3.5845,-3.5795,-3.5798,-3.58,-3.5801,0,0,0,0,0,0,0,-3.5508,-3.5519,-3.5628,-3.5607,-3.561,-3.5613,-3.5622,-3.5673,-3.5706,-3.566,-3.5661,-3.5671,-3.5741,-3.5761,-3.5768,-3.5846,-3.5795,-3.5799,-3.5802,-3.5804,-3.5974,-3.5975,0,0,0,0,0,0,-3.5499,-3.5515,-3.5625,-3.563,-3.5557,-3.5617,-3.5627,-3.5653,-3.5705,-3.5712,-3.5672,-3.5671,-3.5753,-3.5762,-3.5771,-3.5841,-3.58,-3.5804,-3.5807,-3.5972,-3.5974,-3.5976,0,0,0,0,0,0,-3.5496,-3.5509,-3.5622,-3.5573,-3.5587,-3.5621,-3.565,-3.5655,-3.5675,-3.5714,-3.572,-3.5686,-3.5753,-3.5764,-3.582,-3.5844,-3.5806,-3.5811,-3.597,-3.5973,-3.5975,-3.5982,0,0,0,0,0,0,-3.5492,-3.5508,-3.5529,-3.5573,-3.559,-3.5668,-3.5651,-3.5658,-3.5683,-3.5682,-3.5729,-3.5735,-3.5752,-3.5813,-3.5825,-3.585,-3.5815,-3.5968,-3.5971,-3.5974,-3.598,-3.5985,-3.5989,0,0,0,0,0,-3.5486,-3.5529,-3.553,-3.5543,-3.5617,-3.5669,-3.5679,-3.5697,-3.5685,-3.5707,-3.5732,-3.5734,-3.584,-3.5819,-3.5832,-3.5859,-3.5967,-3.597,-3.5974,-3.5978,-3.5984,-3.5989,0,0,0,0,0,0,-3.5488,-3.5535,-3.5537,-3.5594,-3.5628,-3.567,-3.5699,-3.5703,-3.5741,-3.5739,-3.5761,-3.5771,-3.5827,-3.5849,-3.5824,-3.5918,-3.5902,-3.5909,-3.5901,-3.5907,-3.5911,-3.5903,-3.5819,0,0,0,0,0,-3.5495,-3.5533,-3.5572,-3.5619,-3.5636,-3.5664,-3.5688,-3.5699,-3.5735,-3.575,-3.5779,-3.5815,-3.5856,-3.5883,-3.5923,-3.5984,-3.5994,-3.601,-3.6014,-3.6017,-3.6022,-3.6056,-3.6063,-3.5988,-3.5988,-3.5988,0,0,-3.551,-3.554,-3.5563,-3.562,-3.5647,-3.5687,-3.5676,-3.5719,-3.5748,-3.5757,-3.581,-3.5833,-3.5875,-3.5933,-3.5961,-3.5954,-3.6046,-3.6022,-3.6024,-3.6027,-3.606,-3.6067,-3.6073,-3.599,-3.599,-3.5989,0,0,-3.5556,-3.5584,-3.5625,-3.5652,-3.5693,-3.5712,-3.5722,-3.5765,-3.578,-3.5834,-3.5841,-3.5878,-3.5949,-3.5978,-3.6002,-3.6061,-3.6064,-3.6074,-3.6096,-3.6128,-3.6134,-3.6139,-3.6159,-3.6166,-3.6079,-3.6079,-3.6079,0,-3.557,-3.5628,-3.5646,-3.5688,-3.5713,-3.5722,-3.5765,-3.5791,-3.5843,-3.5861,-3.5853,-3.5942,-3.5971,-3.6036,-3.605,-3.607,-3.6083,-3.6068,-3.6132,-3.6137,-3.6142,-3.6162,-3.6169,-3.608,-3.608,-3.608,-3.608,0,-3.5642,-3.5683,-3.5712,-3.5761,-3.579,-3.5832,-3.5857,-3.5885,-3.5894,-3.5914,-3.597,-3.6005,-3.6052,-3.6069,-3.6079,-3.6136,-3.613,-3.6127,-3.6111,-3.615,-3.6168,-3.6176,-3.6081,-3.6081,-3.6081,-3.6081,0,0,-3.5691,-3.5749,-3.5759,-3.5781,-3.5828,-3.586,-3.5904,-3.5949,-3.5971,-3.6008,-3.6045,-3.6105,-3.6102,-3.613,-3.6143,-3.6172,-3.6215,-3.6165,-3.6166,-3.6172,-3.628,-3.6281,-3.6289,-3.6218,-3.622,-3.6221,-3.6276,0,-3.5741,-3.5816,-3.5834,-3.5899,-3.5937,-3.5946,-3.5984,-3.6017,-3.6038,-3.6074,-3.6097,-3.6139,-3.6132,-3.6149,-3.6178,-3.6204,-3.6237,-3.62,-3.6253,-3.6255,-3.624,-3.6299,-3.63,-3.6349,-3.6283,-3.6284,-3.6285,0,-3.581,-3.5846,-3.5914,-3.5955,-3.5972,-3.6005,-3.6048,-3.6082,-3.6121,-3.6134,-3.6165,-3.6175,-3.6222,-3.6205,-3.627,-3.6245,-3.6268,-3.6284,-3.6287,-3.6291,-3.6271,-3.6303,-3.6366,-3.6372,-3.6297,-3.6296,-3.6295,0,-3.5836,-3.5903,-3.5952,-3.5971,-3.602,-3.6044,-3.6066,-3.6102,-3.6128,-3.6167,-3.6184,-3.6228,-3.6252,-3.6286,-3.6309,-3.6295,-3.6372,-3.6357,-3.6384,-3.6384,-3.6398,-3.6397,-3.6464,-3.6416,-3.6416,-3.6416,-3.6416,0,-3.589,-3.5931,-3.5964,-3.5994,-3.6041,-3.6062,-3.6108,-3.6131,-3.6163,-3.6199,-3.6211,-3.6244,-3.6273,-3.6311,-3.633,-3.638,-3.6391,-3.6404,-3.6408,-3.6401,-3.64,-3.6415,-3.6412,-3.6418,-3.6418,-3.6417,-3.6417,0,-3.5927,-3.5951,-3.6004,-3.6047,-3.6059,-3.6091,-3.6128,-3.6158,-3.6179,-3.6224,-3.6236,-3.627,-3.6315,-3.6341,-3.6399,-3.6411,-3.6467,-3.647,-3.6453,-3.6454,-3.6479,-3.6476,-3.6558,-3.6569,-3.6515,-3.6515,-3.6516,0,-3.5958,-3.5989,-3.6035,-3.6059,-3.6081,-3.6119,-3.6145,-3.6169,-3.6196,-3.6242,-3.6267,-3.6312,-3.6349,-3.6421,-3.6452,-3.6496,-3.65,-3.6526,-3.6506,-3.6499,-3.6498,-3.6495,-3.6499,-3.6528,-3.6528,-3.6529,-3.6529,0,-3.6011,-3.6022,-3.6058,-3.6099,-3.613,-3.6164,-3.6197,-3.6217,-3.6246,-3.6276,-3.6321,-3.635,-3.6408,-3.6453,-3.65,-3.6524,-3.6532,-3.6535,-3.6543,-3.6536,-3.6524,-3.653,-3.646,-3.6533,-3.6532,-3.6532,-3.6532,-3.6532,-3.6045,-3.6073,-3.6109,-3.615,-3.6178,-3.6209,-3.6239,-3.6264,-3.6301,-3.6349,-3.6361,-3.6408,-3.6447,-3.651,-3.6536,-3.6575,-3.657,-3.6583,-3.6586,-3.6588,-3.6588,-3.6519,-3.6584,-3.6583,-3.6583,-3.6583,-3.6583,0,-3.6098,-3.6122,-3.6159,-3.6204,-3.6237,-3.624,-3.6278,-3.6305,-3.6346,-3.638,-3.6417,-3.6469,-3.6513,-3.6547,-3.6593,-3.6617,-3.6621,-3.6628,-3.6625,-3.6631,-3.6589,-3.6577,-3.6623,-3.6623,-3.6623,-3.6623,-3.6623,-3.6623,-3.6129,-3.6176,-3.6191,-3.6252,-3.6276,-3.6321,-3.6343,-3.6372,-3.6399,-3.6456,-3.6492,-3.6514,-3.6549,-3.6597,-3.6638,-3.6647,-3.6663,-3.6668,-3.6678,-3.6638,-3.6634,-3.663,-3.6618,-3.6672,-3.6672,-3.6716,-3.6716,-3.6717]},{"header":{"parameterUnit":"m.s-1","parameterCategory":1,"la1":30.2991,"la2":30.254,"lo1":-89.0895,"lo2":-89.0444,"dy":0.0017,"dx":0.0017,"nx":28,"ny":28,"refTime":"2026-02-17T03:00:00:Z","depth":0,"parameterNumber":3,"parameterNumberName":"V-component_of_WINDS"},"data":[0,0,0,0,0,0,0,0,0,0,0,0,0,0,0,0,0,0,0,0,0,0,0,0,0,0,0,0,0,0,0,0,0,0,0,0,0,0,0,0,0,0,0,0,0,0,0,0,0,0,0,0,0,0,0,0,0,0,4.0306,4.0307,0,4.0343,4.0343,4.0344,4.0339,4.0338,4.0338,4.0337,4.0369,4.0371,4.0372,0,0,0,0,0,0,0,0,0,0,0,0,0,4.0228,4.023,4.0306,4.0307,4.0307,4.0343,4.0343,4.0344,4.0339,4.0338,4.0338,4.0337,4.0369,4.037,4.0372,0,0,0,0,0,0,0,0,0,0,0,0,0,4.0263,4.023,4.0306,4.0309,4.031,4.0343,4.0343,4.0344,4.0339,4.0338,4.0337,4.0337,4.0368,4.037,4.0372,4.0403,0,0,4.0379,4.038,0,0,0,0,0,0,0,0,4.0261,4.0266,4.0308,4.0309,4.031,4.0336,4.0328,4.0363,4.0339,4.0328,4.0337,4.0336,4.0358,4.0361,4.037,4.0404,4.0406,4.0379,4.038,4.0381,4.0382,0,0,0,0,0,0,0,4.0259,4.0264,4.0321,4.0309,4.031,4.0307,4.0311,4.0334,4.0347,4.0329,4.0329,4.0333,4.0359,4.0368,4.0371,4.0406,4.0379,4.0381,4.0382,4.0383,4.0469,4.047,0,0,0,0,0,0,4.0256,4.0262,4.0319,4.0322,4.0283,4.031,4.0314,4.0328,4.0347,4.0349,4.0334,4.0333,4.0365,4.0368,4.0372,4.041,4.0381,4.0383,4.0384,4.0468,4.0469,4.047,0,0,0,0,0,0,4.0254,4.0261,4.0318,4.0292,4.0299,4.0312,4.0328,4.0329,4.0339,4.0351,4.0353,4.0341,4.0364,4.0369,4.0396,4.0411,4.0384,4.0386,4.0467,4.0468,4.047,4.0486,0,0,0,0,0,0,4.0252,4.0261,4.0273,4.0292,4.0301,4.0343,4.0329,4.0331,4.0343,4.0342,4.0359,4.036,4.0364,4.0393,4.0398,4.0413,4.0388,4.0465,4.0467,4.0469,4.0484,4.0487,4.0491,0,0,0,0,0,4.025,4.0275,4.0274,4.0281,4.0317,4.0344,4.0348,4.0353,4.0344,4.0356,4.0365,4.036,4.0408,4.0396,4.0401,4.0417,4.0464,4.0467,4.0469,4.0482,4.0487,4.0491,0,0,0,0,0,0,4.0254,4.0277,4.0277,4.0309,4.0325,4.0343,4.0358,4.0357,4.0374,4.0372,4.0376,4.038,4.0408,4.0415,4.0401,4.0449,4.0435,4.0439,4.0443,4.0447,4.0451,4.0448,4.0389,0,0,0,0,0,4.026,4.0282,4.0299,4.0326,4.0335,4.0345,4.0357,4.036,4.0375,4.0381,4.0392,4.0406,4.0424,4.0436,4.0453,4.0485,4.0489,4.0499,4.0502,4.0505,4.0508,4.0526,4.0531,4.0478,4.0478,4.0478,0,0,4.027,4.0285,4.0298,4.0328,4.034,4.0362,4.0351,4.0373,4.0389,4.0384,4.0411,4.0419,4.0435,4.0465,4.0478,4.0472,4.0524,4.0508,4.051,4.0512,4.0529,4.0534,4.0538,4.0479,4.0479,4.0479,0,0,4.03,4.0314,4.0339,4.0352,4.0372,4.038,4.0386,4.0404,4.041,4.0438,4.0436,4.0453,4.0485,4.0497,4.0507,4.0543,4.054,4.0549,4.0567,4.0584,4.0589,4.0592,4.0606,4.0611,4.0552,4.0552,4.0552,0,4.031,4.0344,4.0351,4.0375,4.0388,4.0387,4.0412,4.0424,4.0448,4.0456,4.0449,4.049,4.05,4.0534,4.0543,4.0551,4.0557,4.0547,4.0588,4.0591,4.0595,4.0608,4.0613,4.0553,4.0553,4.0553,4.0552,0,4.0356,4.0379,4.0396,4.0423,4.0437,4.0461,4.0471,4.0485,4.0487,4.0495,4.0523,4.0536,4.0557,4.0565,4.0565,4.0598,4.0594,4.0587,4.0573,4.0601,4.0614,4.0619,4.0554,4.0554,4.0554,4.0553,0,0,4.0389,4.0421,4.0427,4.044,4.0462,4.048,4.0504,4.0526,4.0539,4.0555,4.0575,4.0603,4.0597,4.0609,4.0611,4.0626,4.0656,4.0618,4.0618,4.0625,4.0694,4.0699,4.0705,4.0654,4.0655,4.0655,4.0693,0,4.0422,4.0467,4.0475,4.0514,4.0536,4.0536,4.0557,4.0572,4.058,4.0599,4.0607,4.0627,4.0618,4.0625,4.0641,4.0649,4.067,4.0646,4.0672,4.0672,4.0669,4.0711,4.0717,4.0751,4.0697,4.0698,4.0699,0,4.0466,4.0488,4.0529,4.0551,4.0561,4.0579,4.0602,4.062,4.0637,4.0642,4.0656,4.0657,4.0681,4.0666,4.0699,4.0683,4.0694,4.07,4.0701,4.0704,4.0688,4.0716,4.0762,4.0768,4.0706,4.0706,4.0705,0,4.0488,4.0526,4.0557,4.0567,4.0593,4.0607,4.0618,4.0635,4.0648,4.0667,4.0676,4.0696,4.0707,4.0722,4.0728,4.0717,4.0761,4.0747,4.0765,4.0765,4.0775,4.0774,4.0824,4.0781,4.078,4.078,4.078,0,4.0525,4.055,4.0567,4.0586,4.0615,4.0623,4.0651,4.0661,4.0677,4.0696,4.0697,4.0715,4.0721,4.074,4.0745,4.0772,4.0776,4.0781,4.0782,4.0781,4.0781,4.0788,4.0786,4.0782,4.0781,4.0781,4.0781,0,4.0554,4.0566,4.06,4.0622,4.0629,4.0649,4.0668,4.0685,4.0694,4.0719,4.0725,4.0738,4.076,4.0768,4.0794,4.0797,4.0829,4.0828,4.0824,4.0825,4.0843,4.0842,4.09,4.0909,4.0859,4.0859,4.086,0,4.0576,4.0597,4.0623,4.0638,4.065,4.0673,4.0688,4.0696,4.0712,4.0734,4.0749,4.0772,4.0791,4.0827,4.0838,4.0858,4.0857,4.0877,4.086,4.086,4.0859,4.0858,4.086,4.088,4.088,4.0881,4.0881,0,4.0616,4.0622,4.0645,4.067,4.0689,4.0708,4.0727,4.0738,4.0749,4.0766,4.0791,4.0806,4.0834,4.0857,4.0878,4.0888,4.0886,4.0886,4.0892,4.0892,4.0889,4.0892,4.0833,4.0885,4.0884,4.0884,4.0884,4.0884,4.0643,4.0662,4.0684,4.071,4.0726,4.0744,4.0762,4.0774,4.0796,4.0821,4.0824,4.0851,4.0868,4.0897,4.0908,4.0928,4.0922,4.093,4.0932,4.0934,4.0936,4.0886,4.0931,4.0931,4.0931,4.0931,4.0931,0,4.0684,4.0699,4.0722,4.0751,4.0771,4.077,4.0791,4.0807,4.0831,4.0849,4.0869,4.0897,4.0919,4.0932,4.0955,4.0968,4.0968,4.0974,4.0973,4.0975,4.0939,4.0933,4.0974,4.0974,4.0974,4.0974,4.0974,4.0974,4.0708,4.074,4.0749,4.0789,4.0803,4.0831,4.0843,4.086,4.0874,4.0907,4.0927,4.0936,4.0951,4.0975,4.0995,4.0999,4.1007,4.1013,4.1016,4.0982,4.0978,4.0974,4.0968,4.1015,4.1015,4.1051,4.1051,4.1051]}]]